Elkins, WV

1:26 AM EST on January 23, 2018 (GMT -0500)
Elkins-Randolph County

Weather History for KEKN - June, 2014

Change the Weather History Date:

Wednesday, June 18, 2014

  Actual Average Record
Temperature  
Mean Temperature 74 °F 67 °F  
Max Temperature 87 °F 79 °F 91 °F (1994)
Min Temperature 61 °F 55 °F 39 °F (1986)
Degree Days  
Heating Degree Days 0 1  
Month to date heating degree days 14 44  
Since 1 June heating degree days 14 44  
Since 1 July heating degree days 6002 5841  
Cooling Degree Days 9 3  
Month to date cooling degree days 62 42  
Year to date cooling degree days 98 65  
Since 1 June cooling degree days 62 42  
Growing Degree Days 24 (Base 50)    
Moisture  
Dew Point 64 °F    
Average Humidity 69    
Maximum Humidity 93    
Minimum Humidity 45    
Precipitation  
Precipitation 0.00 in 0.14 in 1.83 in (1921)
Month to date precipitation 1.62 2.55  
Year to date precipitation 16.96 21.76  
Snow  
Snow 0.00 in - - ()
Month to date snowfall 0.0  
Since 1 September snowfall 92.3  
Snow Depth 0.00 in    
Sea Level Pressure  
Sea Level Pressure 30.12 in    
Wind  
Wind Speed 4 mph (West)    
Max Wind Speed 16 mph    
Max Gust Speed 20 mph    
Visibility 9 miles    
Events      
T = Trace of Precipitation, MM = Missing Value Source: NWS Daily Summary

Daily Weather History Graph

Daily Weather History Graph

Search for Another Location

Airport or City:

Trip Planner

Search our weather history database for the weather conditions in past years. The results will help you decide how hot, cold, wet, or windy it might be!

Date:

Astronomy

Jun. 18, 2014 Rise Set
Actual Time 5:53 AM EDT 8:47 PM EDT
Civil Twilight 5:21 AM EDT 9:19 PM EDT
Nautical Twilight 4:41 AM EDT 9:59 PM EDT
Astronomical Twilight 3:54 AM EDT 10:46 PM EDT
Moon 12:18 AM EDT (6/18) 12:12 PM EDT (6/18)
Length of Visible Light 15h 57m
Length of Day
14h 53m
Waning Gibbous, 63% of the Moon is Illuminated
Jun 18
Waning Gibbous
Jun 19
Last Quarter
Jun 27
New
Jul 5
First Quarter
Jul 12
Full

Hourly Weather History & Observations

Time (EDT) Temp. Heat Index Dew Point Humidity Pressure Visibility Wind Dir Wind Speed Gust Speed Precip Events Conditions
12:51 AM 63.0 °F - 60.1 °F 90% 30.12 in 7.0 mi Calm Calm - N/A   Clear
1:51 AM 63.0 °F - 59.0 °F 87% 30.12 in 7.0 mi Calm Calm - N/A   Clear
2:51 AM 63.0 °F - 60.1 °F 90% 30.12 in 7.0 mi Calm Calm - N/A   Mostly Cloudy
3:51 AM 63.0 °F - 60.1 °F 90% 30.12 in 6.0 mi Calm Calm - N/A   Scattered Clouds
4:51 AM 62.6 °F - 60.8 °F 94% 30.17 in 7.0 mi Calm Calm - N/A   Partly Cloudy
5:51 AM 62.1 °F - 59.0 °F 90% 30.13 in 6.0 mi Calm Calm - N/A   Partly Cloudy
6:51 AM 64.9 °F - 62.1 °F 90% 30.12 in 7.0 mi Calm Calm - N/A   Partly Cloudy
7:51 AM 75.2 °F - 64.4 °F 69% 30.17 in 10.0 mi Variable 3.5 mph - N/A   Clear
8:51 AM 77.0 °F - 66.0 °F 69% 30.14 in 10.0 mi WNW 9.2 mph - N/A   Mostly Cloudy
9:08 AM 77.0 °F - 66.0 °F 69% 30.17 in 10.0 mi West 9.2 mph 19.6 mph N/A   Mostly Cloudy
9:17 AM 78.1 °F - 66.9 °F 68% 30.17 in 10.0 mi West 8.1 mph - N/A   Scattered Clouds
9:51 AM 79.0 °F - 66.9 °F 66% 30.14 in 10.0 mi Variable 6.9 mph - N/A   Scattered Clouds
10:51 AM 80.1 °F 82.7 °F 68.0 °F 67% 30.15 in 10.0 mi West 10.4 mph - N/A   Mostly Cloudy
11:51 AM 80.1 °F 82.3 °F 66.9 °F 64% 30.15 in 10.0 mi NW 9.2 mph 18.4 mph N/A   Mostly Cloudy
12:51 PM 84.0 °F 86.5 °F 66.9 °F 56% 30.13 in 10.0 mi WNW 10.4 mph - N/A   Partly Cloudy
1:51 PM 84.0 °F 85.8 °F 64.9 °F 53% 30.12 in 10.0 mi West 9.2 mph - N/A   Partly Cloudy
2:51 PM 86.0 °F 87.6 °F 64.9 °F 49% 30.12 in 10.0 mi West 8.1 mph - N/A   Clear
3:51 PM 86.0 °F 87.3 °F 64.4 °F 48% 30.14 in 10.0 mi West 8.1 mph - N/A   Scattered Clouds
4:51 PM 86.0 °F 86.8 °F 63.0 °F 46% 30.07 in 10.0 mi West 3.5 mph - N/A   Clear
5:51 PM 86.0 °F 87.3 °F 64.0 °F 48% 30.07 in 10.0 mi WSW 8.1 mph - N/A   Partly Cloudy
6:51 PM 84.0 °F 84.9 °F 63.0 °F 49% 30.06 in 10.0 mi WSW 8.1 mph - N/A   Clear
7:51 PM 81.0 °F 82.5 °F 64.0 °F 56% 30.07 in 10.0 mi West 4.6 mph - N/A   Clear
8:51 PM 73.0 °F - 64.9 °F 76% 30.08 in 10.0 mi Calm Calm - N/A   Clear
9:51 PM 71.1 °F - 64.9 °F 81% 30.09 in 10.0 mi Calm Calm - N/A   Clear
10:51 PM 70.0 °F - 64.0 °F 81% 30.11 in 10.0 mi ENE 3.5 mph - N/A   Mostly Cloudy
11:51 PM 68.0 °F - 64.0 °F 87% 30.09 in 9.0 mi Calm Calm - N/A   Clear